SAS962D ESSA-LOWW

Flight info

Callsign SAS962D
Flight time N/A
Altitude 37000
Route BABAP T316 NEPVA DCT GOTAL DCT PENOR DCT BEZMI DCT ATMIR DCT DESEN/N0429F380 DCT MIKOV MIKOV8W
Aircraft A320/M-SDE3FGHIRWY/LB1

Departure

Time N/A
Airport Stockholm-Arlanda Airport (ESSA)

Arrival

Time 2026-04-26 11:50
Airport Vienna International Airport (LOWW)
Time Latitude Longitude Altitude Speed Heading
2026-04-26 11:17 49.28029 16.69707 28621 ft 437 kts 188°
2026-04-26 11:18 49.25041 16.68871 28337 ft 437 kts 195°
2026-04-26 11:18 49.22201 16.68289 27788 ft 438 kts 191°
2026-04-26 11:18 49.19160 16.67898 27195 ft 438 kts 189°
2026-04-26 11:18 49.16151 16.67615 26623 ft 427 kts 188°
2026-04-26 11:19 49.13231 16.67345 26075 ft 415 kts 189°
2026-04-26 11:19 49.10382 16.67026 25534 ft 405 kts 190°
2026-04-26 11:19 49.07614 16.66652 24962 ft 396 kts 191°
2026-04-26 11:19 49.04888 16.66236 24442 ft 390 kts 192°
2026-04-26 11:20 49.02196 16.65797 24049 ft 389 kts 192°
2026-04-26 11:20 49.00417 16.65503 23785 ft 388 kts 192°
2026-04-26 11:20 48.96832 16.64919 23133 ft 385 kts 191°
2026-04-26 11:20 48.94170 16.64497 22678 ft 383 kts 191°
2026-04-26 11:21 48.91530 16.64084 22229 ft 381 kts 191°
2026-04-26 11:21 48.88897 16.63679 21786 ft 379 kts 191°
2026-04-26 11:21 48.86277 16.63279 21352 ft 378 kts 191°
2026-04-26 11:21 48.83661 16.62885 20923 ft 377 kts 191°
2026-04-26 11:22 48.81046 16.62494 20497 ft 376 kts 191°
2026-04-26 11:22 48.78434 16.62308 20078 ft 379 kts 179°
2026-04-26 11:22 48.75825 16.62955 19631 ft 381 kts 170°
2026-04-26 11:22 48.73249 16.63800 19231 ft 378 kts 170°
2026-04-26 11:23 48.70686 16.64653 18832 ft 376 kts 170°
2026-04-26 11:23 48.68132 16.65505 18422 ft 375 kts 170°
2026-04-26 11:23 48.65596 16.66349 17968 ft 372 kts 170°
2026-04-26 11:23 48.63069 16.67185 17523 ft 370 kts 170°
2026-04-26 11:24 48.60601 16.68000 17087 ft 367 kts 170°
2026-04-26 11:24 48.58109 16.68782 16656 ft 363 kts 175°
2026-04-26 11:24 48.55625 16.68943 16235 ft 356 kts 187°
2026-04-26 11:24 48.53175 16.68806 15813 ft 354 kts 187°
2026-04-26 11:25 48.50720 16.68682 15371 ft 351 kts 186°
2026-04-26 11:25 48.48296 16.68565 14964 ft 347 kts 186°
2026-04-26 11:25 48.45887 16.68451 14559 ft 345 kts 186°
2026-04-26 11:25 48.43506 16.68339 14094 ft 342 kts 186°
2026-04-26 11:26 48.41135 16.68227 13609 ft 339 kts 187°
2026-04-26 11:26 48.38782 16.68113 13108 ft 336 kts 186°
2026-04-26 11:26 48.36459 16.68001 12615 ft 332 kts 186°
2026-04-26 11:26 48.34181 16.67892 12134 ft 325 kts 187°
2026-04-26 11:27 48.31935 16.67786 11654 ft 319 kts 187°
2026-04-26 11:27 48.29735 16.67684 11196 ft 314 kts 186°
2026-04-26 11:27 48.27575 16.67585 10780 ft 307 kts 186°
2026-04-26 11:27 48.25458 16.67486 10373 ft 301 kts 186°
2026-04-26 11:28 48.23389 16.67385 9941 ft 295 kts 187°
2026-04-26 11:28 48.21356 16.67283 9486 ft 290 kts 187°
2026-04-26 11:28 48.19353 16.67183 9041 ft 286 kts 187°
2026-04-26 11:28 48.17376 16.67086 8598 ft 282 kts 187°
2026-04-26 11:29 48.15432 16.66990 8173 ft 278 kts 187°
2026-04-26 11:29 48.13501 16.66895 7741 ft 276 kts 187°
2026-04-26 11:29 48.11625 16.66805 7321 ft 271 kts 187°
2026-04-26 11:29 48.09753 16.66718 6906 ft 266 kts 187°
2026-04-26 11:30 48.07913 16.66633 6467 ft 262 kts 188°
2026-04-26 11:30 48.06691 16.66574 6169 ft 259 kts 188°
2026-04-26 11:30 48.04309 16.66456 5587 ft 257 kts 187°
2026-04-26 11:30 48.02527 16.66368 5149 ft 255 kts 187°
2026-04-26 11:31 48.00753 16.66283 4704 ft 253 kts 185°
2026-04-26 11:31 47.99009 16.66202 4295 ft 250 kts 185°
2026-04-26 11:31 47.97292 16.66121 3858 ft 248 kts 185°
2026-04-26 11:31 47.95676 16.65526 3411 ft 235 kts 219°
2026-04-26 11:32 47.94742 16.63725 3000 ft 211 kts 264°
2026-04-26 11:32 47.94938 16.61801 2977 ft 179 kts 311°
2026-04-26 11:32 47.95952 16.60962 3013 ft 169 kts 357°
2026-04-26 11:32 47.96988 16.61706 2982 ft 177 kts 45°
2026-04-26 11:33 47.97680 16.63266 2800 ft 175 kts 43°
2026-04-26 11:33 47.98663 16.63902 2689 ft 153 kts 352°
2026-04-26 11:33 47.99587 16.63181 2520 ft 149 kts 328°
2026-04-26 11:33 48.00531 16.62664 2338 ft 146 kts 347°
2026-04-26 11:34 48.01502 16.62256 2159 ft 143 kts 344°
2026-04-26 11:34 48.02457 16.61844 1949 ft 142 kts 345°
2026-04-26 11:34 48.03404 16.61441 1768 ft 143 kts 345°
2026-04-26 11:34 48.04364 16.61034 1569 ft 142 kts 345°
2026-04-26 11:35 48.05305 16.60636 1369 ft 136 kts 345°
2026-04-26 11:35 48.06189 16.60263 1182 ft 128 kts 345°
2026-04-26 11:35 48.07031 16.59908 1025 ft 125 kts 347°
2026-04-26 11:35 48.07585 16.59675 914 ft 126 kts 347°
2026-04-26 11:36 48.08702 16.59202 690 ft 124 kts 346°
2026-04-26 11:36 48.09499 16.58865 633 ft 110 kts 344°
2026-04-26 11:36 48.10283 16.58526 1065 ft 126 kts 344°
2026-04-26 11:36 48.11127 16.58139 1443 ft 128 kts 341°
2026-04-26 11:37 48.11996 16.57661 1654 ft 138 kts 339°
2026-04-26 11:37 48.12894 16.57207 2064 ft 131 kts 344°
2026-04-26 11:37 48.13643 16.56902 2524 ft 124 kts 344°
2026-04-26 11:37 48.14504 16.56553 2849 ft 137 kts 344°
2026-04-26 11:38 48.15090 16.56315 3073 ft 149 kts 345°
2026-04-26 11:38 48.16155 16.55889 3477 ft 171 kts 344°
2026-04-26 11:38 48.17370 16.55392 3952 ft 189 kts 344°
2026-04-26 11:38 48.18705 16.54841 4503 ft 207 kts 344°
2026-04-26 11:39 48.20135 16.54249 4925 ft 215 kts 344°
2026-04-26 11:39 48.21571 16.53653 4997 ft 213 kts 343°
2026-04-26 11:39 48.22997 16.53061 5004 ft 212 kts 343°
2026-04-26 11:39 48.24417 16.52469 5007 ft 212 kts 343°
2026-04-26 11:40 48.25858 16.52026 5003 ft 213 kts
2026-04-26 11:40 48.27215 16.52898 5007 ft 223 kts 41°
2026-04-26 11:40 48.27874 16.55037 5011 ft 244 kts 82°
2026-04-26 11:40 48.27462 16.57625 5013 ft 268 kts 120°
2026-04-26 11:41 48.26062 16.59481 5009 ft 275 kts 157°
2026-04-26 11:42 48.13466 16.61652 5006 ft 260 kts 171°
2026-04-26 11:43 48.11699 16.62156 5005 ft 253 kts 171°
2026-04-26 11:43 48.09986 16.62639 4732 ft 251 kts 170°
2026-04-26 11:43 48.08846 16.62958 4522 ft 251 kts 172°
2026-04-26 11:43 48.07143 16.63452 4290 ft 247 kts 171°
2026-04-26 11:44 48.05490 16.63947 4060 ft 236 kts 171°
2026-04-26 11:44 48.03934 16.64413 3850 ft 221 kts 170°
2026-04-26 11:44 48.02458 16.64846 3626 ft 213 kts 170°
2026-04-26 11:44 48.01008 16.65246 3392 ft 211 kts 170°
2026-04-26 11:45 47.99980 16.65516 3222 ft 209 kts 170°
2026-04-26 11:46 47.98719 16.65783 3034 ft 206 kts 172°
2026-04-26 11:46 47.97300 16.65957 2985 ft 205 kts 193°
2026-04-26 11:46 47.96235 16.65031 2996 ft 194 kts 239°
2026-04-26 11:46 47.95940 16.63238 3007 ft 178 kts 288°
2026-04-26 11:47 47.96671 16.61878 3008 ft 168 kts 338°
2026-04-26 11:47 47.97771 16.61871 2873 ft 162 kts 17°
2026-04-26 11:47 47.98822 16.62390 2648 ft 158 kts
2026-04-26 11:47 47.99901 16.62491 2459 ft 153 kts 355°
2026-04-26 11:48 48.00954 16.62287 2253 ft 153 kts 349°
2026-04-26 11:48 48.01997 16.61952 2055 ft 152 kts 347°
2026-04-26 11:48 48.03028 16.61562 1846 ft 153 kts 346°
2026-04-26 11:48 48.04053 16.61149 1638 ft 148 kts 346°
2026-04-26 11:49 48.04996 16.60759 1444 ft 134 kts 345°
2026-04-26 11:49 48.05870 16.60394 1267 ft 127 kts 346°
2026-04-26 11:49 48.06713 16.60039 1093 ft 123 kts 348°
2026-04-26 11:49 48.07532 16.59695 910 ft 123 kts 345°
2026-04-26 11:50 48.08371 16.59346 757 ft 126 kts 345°
2026-04-26 11:50 48.09205 16.58992 621 ft 124 kts 345°
2026-04-26 11:50 48.09693 16.58784 618 ft 9 kts 342°
2026-04-26 11:50 48.09695 16.58783 617 ft 0 kts 342°